Погода в Джогино

Россия / Иркутская область     56°38′54″N   98°09′47″E
темп.,
°C
ветер,
м/с
пор.,
м/с
влажн.,
%
обл.,
%
осадки,
мм/ч
давл.,
гПа
погр.,
м
23 сентября, чт
чт2323:00+3юз289594 0.1 1020513
02:00+2ююз279793 0.2 1020271
05:00+2юз1596100 0.1 1020610
08:00+2юз1695100 0.2 1021360
11:00+4зюз2588100 0.1 1021648
14:00+4з2486100 0.3 1021614
17:00+5зюз1284100 0.5 1021646
20:00+4ссв0182100 0.4 102211
24 сентября, пт
пт2423:00+3зюз1188100 0.1 102213
02:00+3ссз1185100 0.1 102213
05:00+3ссв1183100 0.0 102211
08:00+2ссв118487 0.0 102231
11:00+6св115852 0.0 10221034
14:00+7з0152100 0.0 10221319
17:00+7ююв115593 0.0 10221060
20:00+3з2397100 0.6 1025361
25 сентября, сб
сб2523:00+3з2595100 1.7 1026447
02:00+2зюз129187 1.7 102689
05:00−2ююз11965 0.0 102810
08:00−2ююв129592 0.0 102862
11:00+5ююв22726 0.0 1028526
14:00+8юв11487 0.0 10261291
17:00+9юв124471 0.0 10251553
20:00+3всв226878 0.0 102612
26 сентября, вс
вс2623:00+1всв398042 0.0 1025188
02:000всв298347 0.0 1024178
05:00−1всв268782 0.0 1023110
08:00−1всв288384 0.0 1023187
11:00+6всв465278 0.0 1021683
14:00+8св3440100 0.0 10191457
17:00+8св3442100 0.0 10181573
20:00+3св2764100 0.0 1019142
27 сентября, пн
пн2723:00+1ссв2771100 0.0 1019150
02:000св2790100 0.0 1019186
05:000ссв2899100 0.0 1019244
08:00+2с2697100 0.0 1019431
11:00+4с3471100 0.0 1019725
14:00+7с3553100 0.1 10181566
17:00+6с4659100 0.1 10191217
20:00+2с3789100 0.1 1021512